Regional Weather Roundup
Issued by NWS

Home | Current Version | Previous Version | Graphics & Text | Print | Product List | Glossary Off
Versions: 1 2 3 4 5 6 7 8 9 10 11 12 13 14 15 16 17 18 19 20 21 22 23 24 25 26 27 28 29 30 31 32 33 34 35 36 37 38 39 40 41 42 43 44 45 46 47 48 49 50

000
ASUS43 KTOP 180759
RWRKS

WEATHER ROUNDUP FOR KANSAS
NATIONAL WEATHER SERVICE GOODLAND KS
200 AM CST THU DEC 18 2014

NOTE:  "FAIR" INDICATES FEW OR NO CLOUDS BELOW 12,000 FEET WITH NO
SIGNIFICANT WEATHER AND/OR OBSTRUCTIONS TO VISIBILITY.

KSZ001>006-013>018-027>032-041>047-180900-
NORTHWEST KANSAS

CITY           SKY/WX    TMP DP  RH WIND       PRES   REMARKS
GOODLAND       CLOUDY    25  23  92 CALM      30.04F
HAYS           CLOUDY    27  18  69 NE7       30.11F
HILL CITY      CLOUDY    26  24  92 E6        30.13F FOG
RUSSELL        LGT SNOW  26  25  96 NE5       30.13S FOG
$$

KSZ061>065-074>080-084>089-180900-
SOUTHWEST KANSAS

CITY           SKY/WX    TMP DP  RH WIND       PRES   REMARKS
DODGE CITY     LGT SNOW  29  26  89 E6        30.07F FOG
ELKHART          N/A     31  25  79 NW6         N/A
GARDEN CITY    CLOUDY    29  28  96 E8        30.04F
GREAT BEND     CLOUDY    28  23  80 E5        30.13F
LIBERAL        CLOUDY    36  32  87 SE5       30.04S
$$

KSZ066>073-081>083-090>101-180900-
SOUTHEAST KANSAS

CITY           SKY/WX    TMP DP  RH WIND       PRES   REMARKS
CHANUTE        FRZ RAIN  31  30  96 NE5       30.19F FOG
COFFEYVILLE    CLOUDY    33  32  96 NE6       30.19S FOG
HUTCHINSON     LGT SNOW  30  27  88 NE3       30.14S FOG
MEDICINE LODGE   N/A     31  31 100 E3        30.12S
NEWTON         MOCLDY    28  23  80 E8        30.14F
PARSONS        LGT RAIN  33  32  96 VRB3      30.19F FOG
WICHITA INTL   LGT SNOW  32  29  88 E6        30.13F FOG
WICHITA JABRA  LGT SNOW  29  28  96 E5        30.14S FOG
WICHITA MCCONL LGT SNOW  32  30  93 E9        30.14S FOG
WINFIELD       MIX PCPN  32  31  96 E7        30.15F FOG
$$

KSZ007>012-019>026-033>040-048>060-102>105-180900-
NORTHEAST KANSAS

CITY           SKY/WX    TMP DP  RH WIND       PRES   REMARKS
CONCORDIA      HVY SNOW  25  24  96 E5        30.18S VSB 1/4
EMPORIA        LGT SNOW  28  27  96 NE6       30.18F FOG
LAWRENCE       CLOUDY    28  26  92 E3        30.24S FOG
MANHATTAN      LGT SNOW  27  26  96 NE7       30.20F FOG
OLATHE IND     LGT SNOW  28  26  92 E5        30.22F FOG
OLATHE EXE     LGT SNOW  28  27  96 E5        30.21S FOG
SALINA         LGT SNOW  29  27  92 NE5       30.18F FOG
TOPEKA BILLARD LGT SNOW  29  27  92 E5        30.23S FOG
TOPEKA FORBES  LGT SNOW  29  27  92 E3        30.21F FOG
$$


USA.gov is the U.S. government's official web portal to all federal, state and local government web resources and services.